Wind_Speed
27 31 32 29 30 33 35 38 42 45 45 45 43 36 35 32 32 30 31 31 27 26 27 25 22 18 17 20 21 21 20 18 18 16 14 12 12 14 16 19 20 22 23 24 26 26 28 29 30
25 27 27 28 31 33 36 36 39 44 47 47 49 39 40 37 37 35 35 34 32 26 31 29 20 19 17 15 24 24 22 19 18 17 16 16 14 14 15 16 19 20 19 18 20 25 27 27 29
26 26 26 29 32 35 36 37 38 41 47 51 51 48 42 44 41 40 39 41 42 37 31 34 30 28 24 21 18 20 24 19 16 21 21 19 19 18 21 21 21 22 22 24 25 27 30 30 29
28 29 30 33 33 35 37 39 39 42 43 50 53 49 48 44 45 43 44 44 42 42 39 37 34 35 32 26 22 23 21 21 21 20 24 26 29 26 21 22 24 25 25 27 26 25 26 28 30
27 29 31 34 35 36 39 40 42 43 45 46 51 49 51 47 47 48 49 47 48 46 45 43 43 43 40 35 31 29 29 26 30 28 28 24 26 27 29 28 22 20 20 23 27 28 28 30 31
30 30 31 33 35 38 40 42 44 46 47 48 48 51 51 52 51 46 45 52 49 48 46 45 44 41 40 41 37 37 34 32 30 31 31 30 33 32 32 34 35 32 28 28 31 33 33 33 35
31 32 31 33 34 38 40 42 44 45 48 50 52 52 52 53 53 52 53 45 55 49 48 48 47 46 45 43 41 38 39 38 37 38 38 38 39 36 36 36 34 35 34 35 35 36 37 37 39
29 31 33 33 35 38 41 42 44 47 49 51 52 54 55 54 52 53 54 55 50 52 52 49 49 51 52 49 44 42 40 40 43 45 44 43 41 40 40 41 40 38 36 38 42 40 36 35 36
29 30 31 33 36 38 43 44 45 48 49 50 52 52 56 57 55 54 56 56 58 58 55 59 55 53 52 52 48 46 45 45 47 48 47 46 46 43 47 48 48 47 42 42 44 44 40 42 44
30 30 29 34 36 38 45 46 47 47 48 50 52 52 53 55 56 55 56 57 59 60 61 56 63 64 59 57 56 54 50 47 51 52 51 51 50 50 50 48 51 51 46 43 44 46 46 47 48
32 32 34 35 36 39 42 45 48 49 49 49 51 52 53 53 54 58 59 59 60 62 64 63 60 63 64 64 65 62 64 64 60 59 55 53 52 54 54 50 52 52 46 48 57 54 54 58 58
34 34 36 36 39 39 40 44 47 48 52 53 54 52 53 53 55 57 59 61 62 63 64 65 67 67 67 70 69 68 71 70 67 66 64 66 65 63 60 63 59 56 65 65 64 64 62 62 62
38 39 38 37 40 41 42 44 45 46 49 54 56 57 56 56 56 58 59 60 61 63 65 66 67 68 70 71 73 73 73 72 71 69 69 66 65 66 65 66 64 65 65 67 67 66 65 64 62
42 42 42 42 42 41 43 45 46 49 48 49 54 58 61 61 60 60 60 59 59 61 63 64 66 67 66 67 67 67 67 68 68 69 69 67 66 66 66 67 68 68 66 67 64 63 61 58 58
44 43 44 44 46 47 47 47 49 52 51 53 54 55 58 61 64 64 62 62 61 62 63 63 63 65 66 66 64 64 65 65 65 67 67 67 67 67 66 66 67 64 64 64 61 59 59 61 59
46 46 46 48 49 50 50 52 52 52 51 54 56 58 57 59 61 64 66 68 68 67 68 67 66 67 66 67 65 66 65 65 65 65 65 64 63 65 64 64 65 63 62 61 59 59 59 61 61
47 48 49 49 50 51 53 56 57 54 55 56 57 58 59 60 58 59 63 66 65 69 71 71 71 71 70 70 68 67 67 68 67 67 65 64 64 65 64 62 62 62 61 60 59 60 60 61 63
50 50 53 51 50 53 53 56 58 53 59 60 60 60 62 62 60 61 63 63 65 67 67 69 70 73 72 73 72 72 71 71 70 70 68 68 67 66 67 65 65 65 65 65 64 64 63 63 63
48 50 50 53 57 51 57 56 61 53 60 59 61 63 65 65 62 64 66 67 66 65 67 69 69 67 69 71 72 72 73 74 74 73 71 69 69 67 68 67 68 68 66 67 65 65 63 60 58
49 51 52 53 55 55 57 59 60 54 60 61 62 63 64 66 65 68 68 69 69 68 69 70 70 69 68 68 67 67 67 69 70 70 71 72 70 67 65 64 63 64 63 63 62 60 58 55 51
46 49 52 52 52 49 54 58 60 56 60 61 63 64 65 66 66 68 69 71 72 72 72 72 73 72 71 71 69 69 69 68 68 67 66 65 63 62 61 60 58 59 58 57 55 54 52 49 50
53 57 54 54 51 52 53 52 54 54 58 62 63 64 64 66 67 67 69 71 72 73 74 73 75 75 74 74 73 73 72 70 70 69 67 65 64 61 59 58 56 56 55 53 54 52 50 50 51
61 62 62 58 58 58 55 56 57 55 50 53 55 61 65 65 66 67 69 70 71 72 73 73 74 76 77 77 77 77 76 74 73 70 70 69 67 67 65 64 63 61 60 58 57 56 53 54 56
66 69 69 65 65 63 60 65 58 63 53 53 49 53 56 59 63 64 66 68 70 72 74 71 68 69 74 77 78 79 79 78 78 76 74 72 73 70 68 67 67 67 67 64 63 61 59 59 59
74 75 74 73 72 63 67 71 62 71 63 51 44 49 54 55 53 55 59 62 64 66 69 69 69 67 67 70 75 78 79 81 82 82 79 79 76 73 73 72 71 72 70 68 66 65 64 63 65
78 80 82 80 78 73 75 76 78 77 66 61 59 55 58 56 54 53 51 54 62 63 64 66 67 67 68 68 69 70 72 77 76 78 77 78 78 76 76 77 75 76 75 72 72 70 67 67 69
85 86 84 82 80 82 77 76 81 79 77 73 69 68 63 67 62 59 54 54 51 54 55 56 65 72 72 72 69 67 66 66 68 71 72 73 63 79 69 73 73 75 75 74 73 71 71 70 69
95 90 93 89 89 83 77 82 81 83 83 81 77 78 73 73 71 67 64 61 58 55 56 60 65 70 74 78 76 72 70 68 67 66 66 66 69 67 68 62 72 74 73 72 73 74 73 72 71
84 97 98 96 94 90 88 83 90 89 87 86 86 82 76 76 75 72 69 67 67 65 64 62 65 71 74 77 79 77 74 70 68 66 65 61 59 63 68 65 66 70 70 72 74 73 70 69 68
72 77 78 93 103 99 96 96 90 89 78 93 90 86 77 78 78 74 75 73 73 71 71 68 67 69 75 77 79 78 76 74 71 69 67 64 60 62 64 66 64 67 65 66 65 68 68 67 67
Wind_Direction
221 217 219 219 220 220 220 220 221 231 233 227 224 207 221 219 225 220 208 208 206 213 213 218 219 224 241 236 225 226 221 230 236 237 237 248 256 263 274 282 278 278 282 285 291 295 296 297 302
224 221 218 220 219 222 221 225 225 227 234 228 233 211 220 220 227 231 225 222 225 235 206 214 215 219 220 239 249 233 234 231 242 244 238 246 262 269 272 282 276 271 274 281 294 301 305 308 310
229 225 223 222 221 223 218 226 228 229 230 234 237 239 220 221 226 230 235 235 237 241 211 216 221 221 238 249 255 248 239 238 252 253 253 255 258 259 262 262 269 277 281 281 289 297 298 299 301
233 229 228 229 226 226 223 230 231 233 232 234 238 239 243 220 228 229 232 241 241 242 237 225 227 240 240 239 244 251 259 251 264 273 261 259 260 253 268 267 261 268 277 279 285 301 306 307 301
237 235 230 232 229 229 228 231 234 234 235 234 238 239 242 241 226 223 226 234 242 243 242 244 248 240 244 246 243 246 256 260 257 257 260 257 261 264 270 271 273 266 274 287 290 294 293 294 298
241 238 234 234 233 232 232 233 236 236 235 236 235 240 239 243 246 237 223 229 230 236 241 244 244 247 246 251 246 247 249 257 260 262 262 261 269 272 273 271 274 273 273 280 283 291 294 292 295
243 241 239 236 235 237 235 237 239 239 238 237 238 237 240 240 244 249 247 236 230 227 234 238 241 247 249 252 250 253 252 257 263 263 265 267 269 272 275 273 271 274 279 287 289 291 294 301 299
245 245 244 242 239 240 241 237 243 243 238 240 239 239 238 240 242 244 247 249 237 230 230 238 243 248 247 248 251 255 253 257 263 267 266 266 264 267 273 276 277 274 277 281 284 288 289 297 300
248 245 245 244 244 242 244 242 240 244 244 241 242 240 240 241 242 243 246 248 248 240 237 237 237 241 245 244 247 250 254 258 261 262 264 261 261 265 268 270 273 272 272 278 285 285 284 289 296
252 249 248 245 244 244 246 247 247 245 247 248 247 245 243 243 244 245 245 246 248 249 251 246 239 240 244 240 245 248 255 257 262 263 263 265 264 264 267 270 270 269 271 282 285 281 286 286 291
254 252 251 249 247 243 245 248 250 249 248 248 250 250 249 247 245 245 245 245 246 249 252 254 252 242 244 245 249 250 263 268 264 259 259 263 264 268 269 272 271 268 273 281 285 284 283 286 288
260 255 252 251 253 251 249 248 249 250 250 251 249 248 249 249 248 246 246 246 246 247 249 253 256 256 255 258 259 258 261 265 266 267 267 269 270 270 270 273 272 268 275 282 284 286 286 281 284
261 257 255 255 254 255 253 254 254 252 250 251 251 250 250 248 248 250 249 248 249 248 248 248 250 252 254 256 259 259 260 261 264 265 267 268 269 270 273 275 275 277 277 280 282 283 283 283 283
262 260 258 255 254 255 255 255 254 255 254 252 252 251 250 249 248 248 249 250 251 251 251 251 252 253 254 255 257 258 260 261 263 265 267 268 270 271 272 273 273 274 275 277 278 279 279 279 280
264 261 259 258 255 253 253 254 253 254 254 254 254 253 251 250 250 250 250 251 250 251 252 252 253 253 255 256 257 258 259 260 260 262 264 266 268 270 270 271 272 273 275 275 276 278 278 279 283
264 263 262 258 256 254 253 254 253 255 256 258 256 257 255 253 252 251 252 251 250 249 250 252 252 254 255 256 257 258 259 260 261 262 264 266 267 269 269 271 272 273 274 276 279 277 279 278 282
264 264 261 257 258 256 255 255 254 253 254 254 256 257 258 258 257 256 254 254 254 253 253 253 254 254 254 255 255 255 257 259 260 262 263 264 265 267 268 269 271 274 275 275 276 278 278 280 283
267 264 264 260 253 258 254 256 255 252 254 254 253 253 256 257 257 257 256 256 256 255 255 256 257 257 256 257 257 258 257 259 259 260 261 262 263 264 266 268 269 271 272 274 275 276 277 279 280
266 266 265 264 263 257 257 252 255 254 253 252 253 255 254 254 255 257 260 258 256 256 258 258 257 258 260 261 261 260 260 260 259 259 260 263 265 265 266 266 268 269 271 272 274 274 276 277 279
270 268 266 267 264 262 264 261 255 254 253 253 252 253 255 255 254 256 258 259 259 259 257 258 259 260 260 261 262 263 263 262 262 263 263 264 264 265 267 268 269 270 271 272 273 274 275 275 276
270 270 269 266 265 266 267 265 263 261 261 257 254 253 254 255 253 253 255 257 259 260 261 262 262 261 260 260 261 262 262 263 264 265 266 267 267 268 268 268 269 269 270 270 270 270 270 273 273
267 268 267 268 270 269 267 272 266 264 264 264 263 261 258 257 255 254 254 255 256 257 259 261 264 266 265 265 263 262 263 263 264 266 266 266 267 266 267 267 267 267 269 268 269 270 271 273 272
263 263 265 265 268 265 270 267 274 263 264 268 266 265 265 263 264 261 257 255 256 257 258 259 260 262 264 265 266 266 266 265 264 264 265 265 265 266 265 266 266 266 266 266 267 269 272 272 271
262 262 262 262 261 265 268 269 267 271 265 260 268 269 266 266 265 266 264 263 262 260 257 256 258 261 263 264 264 264 264 265 265 265 266 265 265 266 266 267 267 267 268 269 270 270 270 271 272
261 260 261 259 259 261 262 264 268 264 265 264 259 260 264 264 266 271 268 266 264 263 262 261 260 260 262 263 264 264 265 265 266 266 266 267 267 269 270 270 270 270 270 270 269 269 268 270 271
267 262 259 258 259 259 257 260 260 264 270 268 258 258 262 265 268 271 273 272 264 261 263 263 262 262 263 263 263 264 267 267 267 267 269 270 270 269 268 269 269 269 269 269 269 270 271 271 272
263 262 263 262 260 257 258 259 262 263 264 262 261 259 260 264 266 269 269 272 273 269 267 272 271 266 264 263 263 264 266 267 268 268 267 267 263 265 267 269 268 268 267 268 268 269 270 271 272
261 261 259 259 259 261 257 260 261 260 262 262 263 261 260 263 265 267 269 272 272 273 272 270 274 269 268 266 265 264 264 264 265 266 265 266 266 266 267 265 267 266 266 266 267 267 268 269 270
257 257 257 257 256 255 257 255 256 260 262 261 260 261 259 262 264 265 267 269 271 273 275 277 276 271 264 263 262 263 264 266 265 266 266 264 264 266 265 267 268 267 267 267 267 268 269 269 269
260 258 252 253 248 253 254 253 256 255 254 256 258 259 257 260 262 263 264 267 270 273 276 279 281 278 264 255 257 259 262 265 266 267 268 266 260 260 260 262 268 270 268 266 264 264 264 265 266
Height
10953 10957 10961 10964 10966 10968 10970 10971 10973 10971 10972 10973 10977 10982 10983 10986 10987 10989 10990 10990 10991 10992 10994 10996 10997 10998 10998 10999 10998 10999 10999 11000 11001 11001 11003 11004 11004 11005 11006 11006 11005 11006 11007 11007 11007 11006 11006 11004 11003
10950 10953 10957 10959 10961 10964 10966 10966 10968 10968 10967 10970 10971 10978 10980 10982 10984 10986 10988 10989 10989 10991 10993 10994 10995 10996 10995 10996 10996 10998 10998 10998 10999 11001 11001 11002 11003 11003 11003 11004 11003 11003 11004 11004 11004 11003 11003 11002 11001
10946 10949 10952 10954 10955 10956 10961 10961 10961 10962 10963 10965 10966 10969 10975 10977 10979 10981 10984 10985 10987 10989 10991 10991 10991 10991 10992 10993 10994 10996 10995 10997 10998 10998 10998 10999 11000 11000 11000 11000 11001 11001 11001 11001 11001 11000 10999 10998 10997
10941 10944 10947 10948 10950 10952 10956 10955 10955 10956 10959 10960 10961 10965 10966 10972 10973 10976 10978 10979 10981 10983 10986 10988 10988 10988 10989 10990 10992 10993 10994 10994 10995 10995 10996 10997 10997 10997 10998 10998 10997 10997 10997 10997 10997 10995 10994 10994 10993
10935 10939 10941 10943 10945 10947 10949 10949 10949 10950 10952 10954 10956 10959 10960 10963 10968 10971 10972 10973 10975 10977 10979 10982 10983 10984 10985 10987 10989 10990 10991 10992 10993 10993 10993 10994 10994 10995 10995 10995 10995 10994 10993 10992 10991 10990 10989 10989 10988
10931 10933 10936 10937 10939 10940 10941 10942 10941 10942 10945 10947 10950 10951 10955 10955 10958 10963 10967 10967 10968 10970 10973 10976 10978 10979 10980 10981 10984 10986 10988 10989 10989 10990 10990 10990 10990 10991 10990 10990 10990 10990 10989 10988 10986 10985 10984 10984 10983
10925 10928 10930 10931 10933 10932 10933 10934 10933 10935 10938 10941 10944 10947 10949 10952 10953 10954 10957 10960 10961 10963 10966 10968 10971 10973 10975 10976 10978 10980 10982 10983 10984 10984 10984 10984 10984 10984 10984 10983 10982 10983 10983 10983 10982 10981 10979 10978 10978
10919 10921 10923 10926 10927 10926 10926 10928 10926 10928 10930 10932 10936 10942 10943 10945 10948 10950 10950 10951 10955 10957 10959 10961 10962 10965 10967 10969 10971 10973 10975 10977 10977 10977 10977 10977 10977 10977 10977 10977 10976 10976 10976 10976 10976 10975 10975 10973 10972
10913 10915 10916 10917 10919 10920 10916 10918 10920 10919 10921 10925 10927 10933 10935 10938 10942 10944 10944 10945 10946 10949 10951 10953 10956 10956 10959 10961 10963 10966 10968 10970 10969 10969 10970 10970 10969 10970 10970 10969 10969 10969 10968 10969 10970 10969 10968 10967 10965
10906 10908 10909 10908 10910 10911 10910 10911 10911 10914 10915 10918 10920 10924 10928 10931 10934 10936 10936 10936 10937 10939 10941 10944 10948 10948 10950 10952 10954 10957 10960 10962 10960 10961 10961 10962 10962 10963 10962 10962 10960 10960 10960 10961 10962 10962 10961 10959 10958
10900 10902 10901 10901 10901 10902 10902 10903 10902 10905 10908 10909 10911 10915 10918 10922 10925 10924 10924 10926 10928 10929 10931 10933 10936 10939 10943 10943 10945 10946 10948 10950 10952 10953 10953 10954 10954 10955 10955 10955 10953 10953 10953 10952 10953 10954 10954 10952 10951
10893 10894 10894 10894 10893 10895 10894 10894 10894 10895 10897 10900 10901 10905 10907 10910 10911 10913 10913 10916 10918 10922 10922 10923 10924 10926 10928 10929 10933 10937 10938 10940 10941 10941 10942 10943 10945 10947 10947 10946 10946 10944 10944 10944 10943 10943 10943 10943 10942
10883 10884 10886 10886 10886 10885 10886 10885 10886 10886 10888 10887 10890 10893 10896 10898 10899 10901 10902 10906 10908 10910 10911 10914 10915 10916 10917 10918 10920 10925 10927 10930 10930 10929 10930 10931 10934 10935 10934 10934 10934 10933 10932 10932 10933 10932 10932 10932 10931
10872 10875 10876 10877 10877 10877 10876 10876 10876 10875 10877 10878 10877 10880 10882 10885 10888 10889 10892 10895 10898 10899 10901 10902 10904 10904 10907 10909 10912 10914 10916 10918 10918 10917 10918 10920 10922 10922 10923 10924 10924 10924 10923 10921 10922 10922 10920 10921 10921
10861 10863 10865 10866 10867 10866 10867 10867 10865 10865 10866 10866 10866 10867 10870 10872 10874 10877 10882 10885 10886 10885 10887 10888 10890 10892 10893 10896 10900 10901 10903 10904 10905 10905 10907 10910 10911 10911 10912 10913 10913 10913 10913 10912 10911 10909 10909 10908 10908
10849 10850 10852 10853 10854 10855 10857 10855 10855 10855 10857 10855 10855 10854 10857 10858 10861 10865 10867 10868 10870 10873 10874 10876 10879 10879 10881 10882 10885 10887 10889 10890 10892 10893 10895 10897 10899 10899 10900 10900 10900 10900 10902 10901 10901 10898 10897 10897 10897
10835 10836 10837 10839 10840 10842 10843 10843 10842 10847 10844 10843 10843 10843 10843 10844 10849 10853 10849 10853 10856 10859 10860 10862 10864 10866 10868 10870 10873 10875 10877 10877 10879 10880 10883 10884 10886 10887 10887 10889 10888 10889 10890 10890 10890 10888 10888 10887 10886
10823 10822 10820 10824 10829 10827 10830 10829 10828 10837 10830 10831 10830 10831 10830 10833 10837 10834 10837 10838 10840 10841 10844 10846 10848 10850 10853 10855 10857 10860 10863 10864 10868 10868 10871 10872 10873 10875 10875 10877 10877 10877 10878 10878 10879 10878 10877 10878 10876
10810 10808 10808 10808 10807 10815 10811 10816 10813 10824 10816 10819 10817 10817 10817 10819 10824 10822 10820 10822 10827 10829 10829 10829 10832 10835 10838 10839 10841 10844 10847 10849 10851 10853 10857 10859 10859 10862 10863 10866 10865 10865 10867 10865 10867 10867 10866 10866 10866
10798 10796 10795 10794 10795 10798 10794 10796 10798 10807 10803 10804 10804 10805 10804 10806 10811 10808 10807 10807 10809 10812 10814 10815 10817 10820 10821 10823 10825 10827 10830 10831 10833 10837 10841 10844 10845 10847 10849 10851 10852 10852 10854 10853 10854 10854 10855 10854 10854
10788 10783 10781 10781 10780 10784 10779 10781 10784 10788 10786 10789 10790 10791 10791 10791 10796 10795 10795 10794 10795 10797 10798 10800 10801 10804 10805 10807 10810 10810 10813 10815 10817 10821 10826 10829 10831 10832 10834 10835 10839 10837 10840 10841 10841 10842 10842 10843 10842
10774 10769 10768 10768 10770 10770 10767 10768 10769 10772 10771 10772 10775 10776 10777 10775 10778 10780 10781 10781 10781 10783 10785 10786 10785 10785 10787 10791 10794 10795 10797 10802 10801 10806 10812 10816 10816 10819 10821 10822 10825 10826 10827 10829 10828 10829 10832 10832 10831
10757 10754 10753 10756 10755 10753 10756 10755 10751 10755 10762 10760 10758 10757 10759 10761 10762 10763 10763 10764 10766 10768 10771 10771 10772 10772 10771 10773 10775 10778 10779 10783 10785 10792 10793 10798 10802 10805 10808 10810 10810 10812 10813 10814 10816 10816 10819 10819 10818
10740 10737 10736 10738 10738 10741 10745 10735 10744 10732 10746 10746 10749 10743 10742 10744 10746 10747 10749 10750 10750 10750 10753 10755 10756 10756 10756 10756 10757 10758 10762 10763 10768 10774 10776 10780 10783 10788 10792 10793 10795 10796 10797 10800 10801 10803 10805 10805 10804
10718 10716 10719 10718 10719 10732 10726 10720 10733 10716 10725 10737 10739 10731 10728 10728 10732 10733 10733 10734 10734 10735 10736 10737 10738 10739 10739 10741 10742 10744 10746 10748 10751 10755 10760 10760 10767 10774 10773 10776 10778 10776 10779 10783 10785 10787 10789 10790 10789
10696 10696 10695 10695 10702 10710 10707 10705 10699 10701 10716 10720 10720 10721 10715 10715 10718 10718 10719 10718 10718 10719 10720 10721 10722 10722 10722 10723 10725 10728 10731 10731 10735 10737 10743 10748 10753 10758 10756 10756 10760 10760 10761 10764 10766 10769 10772 10774 10773
10670 10668 10672 10675 10685 10681 10694 10693 10683 10691 10692 10697 10701 10703 10704 10699 10702 10702 10705 10704 10704 10704 10704 10706 10705 10705 10706 10706 10707 10710 10713 10715 10716 10721 10728 10727 10748 10741 10743 10740 10742 10740 10742 10745 10748 10751 10752 10756 10757
10636 10650 10646 10654 10657 10663 10676 10672 10674 10671 10671 10675 10678 10680 10688 10685 10686 10688 10687 10688 10688 10690 10691 10690 10689 10688 10687 10688 10690 10693 10696 10698 10701 10703 10708 10711 10715 10719 10719 10727 10720 10723 10725 10729 10730 10733 10735 10738 10740
10610 10611 10619 10631 10637 10643 10647 10655 10642 10651 10655 10656 10653 10659 10667 10668 10670 10672 10671 10672 10669 10671 10672 10673 10672 10669 10669 10670 10671 10673 10676 10680 10683 10686 10689 10697 10701 10704 10706 10707 10704 10706 10709 10713 10715 10717 10720 10721 10724
10584 10587 10593 10592 10609 10617 10622 10624 10631 10636 10635 10629 10632 10636 10645 10648 10651 10655 10653 10653 10653 10653 10653 10653 10652 10647 10649 10649 10651 10655 10659 10661 10663 10667 10671 10676 10685 10690 10694 10690 10692 10687 10691 10695 10700 10701 10704 10707 10708